Regional Weather Roundup
Issued by NWS Sterling, VA

Home | Current Version | Previous Version | Text Only | Print | Product List | Glossary Off
Versions: 1 2 3 4 5 6 7 8 9 10 11 12 13 14 15 16 17 18 19 20 21 22 23 24 25 26 27 28 29 30 31 32 33 34 35 36 37 38 39 40 41 42 43 44 45 46 47 48 49 50

134
ASUS41 KLWX 301810
RWRLWX

REGIONAL WEATHER ROUNDUP
NATIONAL WEATHER SERVICE BALTIMORE MD/WASHINGTON DC
200 PM EDT MON MAY 30 2016

Note: "FAIR" indicates few or no clouds below 12,000 feet
with no significant weather and/or obstructions to visibility.
 TC=TEMPERATURE CELSIUS

 * =Non NWS site. Station does not report precipitation (e.g. rain,
    snow, etc.), thunder, or fog.

DCZ001-MDZ009-015-VAZ040>042-051-053>054-301900-
WASHINGTON METRO

CITY           SKY/WX    TMP DP  RH WIND       PRES   REMARKS
WASHINGTON NAT CLOUDY    79  68  69 S5        29.98F
DULLES         PTSUNNY   81  64  56 VRB6      29.98F
ANDREWS AFB    CLOUDY    78  69  74 S5        29.98F
FT BELVOIR     PTSUNNY   79  68  69 S6        29.98F
QUANTICO       CLOUDY    77  69  76 SW7       29.99F
COLLEGE PARK*    N/A     79  64  61 CALM      29.98S
LEESBURG*      FAIR      82  68  61 S8        29.99F
MANASSAS*      CLOUDY    81  68  65 S5        29.98F

$$

MDZ006>007-011-014-301900-
BALTIMORE METRO

CITY           SKY/WX    TMP DP  RH WIND       PRES   REMARKS
BWI AIRPORT    CLOUDY    80  64  58 VRB5      29.97F
MD SCIENCE CTR   N/A     82  65  56 MISG      29.98F
MARTIN STATE   PTSUNNY   79  66  65 SE8       29.99F
ANNAPOLIS      MOSUNNY   74  68  81 SE8       29.98F
FORT MEADE*    CLOUDY    79  63  57 CALM      30.00S

$$

MDZ012-015-019>023-301900-
MARYLAND EASTERN SHORE

CITY           SKY/WX    TMP DP  RH WIND       PRES   REMARKS
OCEAN CITY     LGT RAIN  70  69  97 CALM      30.01F
SALISBURY      LGT RAIN  73  72  96 S5        30.00F
BAY BRIDGE AP* MOSUNNY   77  66  69 S5        29.99S
CAMBRIDGE*     CLOUDY    72  70  94 S6        29.99S
EASTON*        LGT RAIN  73  72  94 SE3       30.03F

$$

MDZ017>025-301900-
SOUTHERN MARYLAND

CITY           SKY/WX    TMP DP  RH WIND       PRES   REMARKS
PATUXENT RIVER CLOUDY    70  68  93 SE10      29.99F
ST INIGOES     RAIN      72  71  97 SE6       29.98F FOG
LEONARDTOWN*   CLOUDY    70  68  94 SE5       30.01S

$$

MDZ003>005-301900-
NORTH CENTRAL MARYLAND

CITY           SKY/WX    TMP DP  RH WIND       PRES   REMARKS
FREDERICK*     SUNNY     82  66  57 CALM      30.00S
HAGERSTOWN APT MOSUNNY   82  63  52 CALM      29.98F
WESTMINSTER*   PTSUNNY   81  75  83 CALM      29.99S

$$

MDZ501>502-301900-
WESTERN MARYLAND

CITY           SKY/WX    TMP DP  RH WIND       PRES   REMARKS
OAKLAND*       CLOUDY    72  59  64 NW5       30.09S
CUMBERLAND*    CLOUDY    84  66  54 SE7       30.01F

$$

VAZ025>031-301900-
SHENANDOAH VALLEY

CITY           SKY/WX    TMP DP  RH WIND       PRES   REMARKS
WINCHESTER*    FAIR      81  63  54 CALM      29.99F
FRONT ROYAL*   FAIR      81  63  54 CALM      29.99F
LURAY*         FAIR      81  61  50 N5        29.99F
NEW MARKET*    FAIR      81  64  56 CALM      29.98S
STAUNTON*      FAIR      78  62  57 CALM      30.03F
WAYNESBORO*    FAIR      78  63  59 N5        30.02F

$$

WVZ021-048>050-054>055-301900-
EASTERN WEST VIRGINIA PANHANDLE

CITY           SKY/WX    TMP DP  RH WIND       PRES   REMARKS
MARTINSBURG    FAIR      81  61  50 CALM      29.98F
PETERSBURG*    FAIR      82  64  54 E6        29.99F

$$

VAZ036>039-050-301900-
CENTRAL FOOTHILLS

CITY           SKY/WX    TMP DP  RH WIND       PRES   REMARKS
CHARLOTTESVILL PTSUNNY   81  65  58 CALM      29.99F
CULPEPER*      FAIR      82  66  59 CALM      29.99F
ORANGE*        CLOUDY    81  66  61 CALM      30.01F
GORDONSVILLE*  MOCLDY    79  68  69 CALM      29.99S
WARRENTON*     CLOUDY    81  61  49 CALM      29.99S

$$

VAZ055>057-301900-
NORTH AND CENTRAL PIEDMONT

CITY           SKY/WX    TMP DP  RH WIND       PRES   REMARKS
FREDERICKSBRG* FAIR      77  70  78 CALM      29.98F
STAFFORD*      CLOUDY    77  68  72 SE3       30.03F

$$

NCZ024-NYZ072-PAZ021-071-VAZ022-071-301900-
OTHER REGIONAL OBSERVATIONS

CITY           SKY/WX    TMP DP  RH WIND       PRES   REMARKS
NEW YORK CITY  CLOUDY    79  66  64 VRB3      29.98F
PHILADELPHIA   PTSUNNY   78  66  66 SW6       29.98F
PITTSBURGH     PTSUNNY   80  60  50 NW3       30.02S
ROANOKE        FAIR      81  62  52 N8        30.04F
RICHMOND       CLOUDY    77  70  79 N3        29.98F
RALEIGH        PTSUNNY   81  71  71 NE9G16    29.96F

$$

ANZ530>537-301900-
MARINE OBSERVATIONS

STATION/POSITION TIME  TEMP    WIND        PRES
                       AIR SEA DIR/SP/G
                 (UTC) (F)     (DEG/KT/KT) (MB)
THOMAS PT LIGHT  1800   71 71  180/  5/  5 1016.8F
BALT KEY BRIDGE  1700   73     120/  6/  8 1015.4F
COVE POINT       1700   69      CALM  /  1 1016.5F
LEWISETTA        1700   73 72  180/  8/  9 1015.5F
SOLOMONS ISLAND  1700   70 66  170/  1/  2   N/A
PINEY POINT      1700           CALM  /  1   N/A

$$





USA.gov is the U.S. government's official web portal to all federal, state and local government web resources and services.